When you browse on this site, cookies collect data to enhance your experience and personalize the content and advertising you see.
Visit our Privacy Policy to learn more. By continuing to use the site, you agree to this use of cookies and data.

Hourly Weather Astrahan'

Today, 13 July, Monday

Time Temperature Precipitation Wind Pressure Humidity
00:00 +30°C° 0 mm 4 mps 751 mmHg 41%
01:00 +29°C° 0 mm 4 mps 751 mmHg 45%
02:00 +29°C° 0 mm 4 mps 751 mmHg 49%
03:00 +29°C° 0 mm 3 mps 751 mmHg 47%
04:00 +30°C° 0 mm 4 mps 751 mmHg 43%
05:00 +32°C° 0 mm 4 mps 751 mmHg 38%
06:00 +33°C° 0 mm 5 mps 751 mmHg 34%
07:00 +35°C° 0 mm 6 mps 750 mmHg 28%
08:00 +38°C° 0 mm 7 mps 750 mmHg 22%
09:00 +41°C° 0 mm 8 mps 751 mmHg 15%
10:00 +41°C° 0 mm 8 mps 750 mmHg 16%
11:00 +41°C° 0 mm 8 mps 750 mmHg 16%
12:00 +43°C° 0 mm 8 mps 750 mmHg 16%
13:00 +43°C° 0 mm 7 mps 750 mmHg 18%
14:00 +42°C° 0 mm 6 mps 750 mmHg 19%
15:00 +42°C° 0 mm 6 mps 750 mmHg 20%
16:00 +41°C° 0 mm 6 mps 750 mmHg 22%
17:00 +40°C° 0 mm 5 mps 749 mmHg 24%
18:00 +39°C° 0 mm 5 mps 749 mmHg 26%
19:00 +35°C° 0 mm 4 mps 749 mmHg 34%
20:00 +31°C° 0 mm 3 mps 749 mmHg 43%
21:00 +28°C° 0 mm 3 mps 750 mmHg 51%
22:00 +28°C° 0 mm 2 mps 749 mmHg 53%
23:00 +27°C° 0 mm 1 mps 749 mmHg 54%

Tomorrow, 14 July, Tuesday

Time Temperature Precipitation Wind Pressure Humidity
00:00 +26°C° 0 mm 1 mps 749 mmHg 56%
01:00 +26°C° 0 mm 1 mps 749 mmHg 57%
02:00 +26°C° 0 mm 2 mps 750 mmHg 59%
03:00 +26°C° 0 mm 2 mps 750 mmHg 60%
04:00 +27°C° 0 mm 3 mps 750 mmHg 59%
05:00 +29°C° 0 mm 3 mps 750 mmHg 57%
06:00 +30°C° 0 mm 4 mps 751 mmHg 56%
07:00 +32°C° 0 mm 4 mps 751 mmHg 50%
08:00 +34°C° 0 mm 5 mps 752 mmHg 43%
09:00 +36°C° 0 mm 5 mps 752 mmHg 37%
10:00 +36°C° 0 mm 5 mps 753 mmHg 38%
11:00 +35°C° 0 mm 5 mps 753 mmHg 38%
12:00 +35°C° 0 mm 5 mps 753 mmHg 39%
13:00 +36°C° 0 mm 5 mps 753 mmHg 36%
14:00 +36°C° 0 mm 5 mps 753 mmHg 33%
15:00 +37°C° 0 mm 5 mps 753 mmHg 30%
16:00 +36°C° 0.1 mm 5 mps 753 mmHg 32%
17:00 +35°C° 0.1 mm 5 mps 753 mmHg 34%
18:00 +35°C° 0.1 mm 5 mps 753 mmHg 35%
19:00 +33°C° 0 mm 4 mps 754 mmHg 38%
20:00 +31°C° 0 mm 3 mps 754 mmHg 42%
21:00 +30°C° 0 mm 3 mps 754 mmHg 45%
22:00 +29°C° 0 mm 3 mps 754 mmHg 45%
23:00 +29°C° 0 mm 3 mps 754 mmHg 46%

Day after tomorrow, 15 July, Wednesday

Time Temperature Precipitation Wind Pressure Humidity
00:00 +29°C° 0 mm 3 mps 754 mmHg 47%
01:00 +29°C° 0 mm 3 mps 754 mmHg 47%
02:00 +28°C° 0 mm 3 mps 755 mmHg 48%
03:00 +28°C° 0 mm 3 mps 755 mmHg 48%
04:00 +29°C° 0 mm 4 mps 755 mmHg 47%
05:00 +30°C° 0 mm 4 mps 755 mmHg 46%
06:00 +30°C° 0 mm 4 mps 756 mmHg 44%
07:00 +30°C° 0 mm 5 mps 756 mmHg 43%
08:00 +32°C° 0 mm 6 mps 756 mmHg 43%
09:00 +32°C° 0 mm 7 mps 756 mmHg 42%
10:00 +33°C° 0 mm 6 mps 756 mmHg 39%
11:00 +34°C° 0 mm 5 mps 756 mmHg 36%
12:00 +34°C° 0 mm 4 mps 756 mmHg 34%
13:00 +35°C° 0 mm 4 mps 756 mmHg 31%
14:00 +36°C° 0 mm 5 mps 756 mmHg 29%
15:00 +37°C° 0 mm 5 mps 756 mmHg 26%
16:00 +37°C° 0 mm 5 mps 756 mmHg 26%
17:00 +36°C° 0 mm 5 mps 756 mmHg 26%
18:00 +36°C° 0 mm 5 mps 756 mmHg 26%
19:00 +34°C° 0 mm 5 mps 756 mmHg 29%
20:00 +32°C° 0 mm 4 mps 756 mmHg 33%
21:00 +29°C° 0 mm 4 mps 756 mmHg 36%
22:00 +29°C° 0 mm 4 mps 756 mmHg 36%
23:00 +28°C° 0 mm 4 mps 756 mmHg 35%

16 July, Thursday

Time Temperature Precipitation Wind Pressure Humidity
00:00 +27°C° 0 mm 4 mps 756 mmHg 35%
01:00 +27°C° 0 mm 5 mps 756 mmHg 35%
02:00 +26°C° 0 mm 5 mps 756 mmHg 36%
03:00 +24°C° 0 mm 6 mps 756 mmHg 36%
04:00 +26°C° 0 mm 6 mps 757 mmHg 37%
05:00 +26°C° 0 mm 6 mps 757 mmHg 37%
06:00 +26°C° 0 mm 6 mps 757 mmHg 38%
07:00 +28°C° 0 mm 6 mps 757 mmHg 35%
08:00 +29°C° 0 mm 6 mps 757 mmHg 32%
09:00 +32°C° 0 mm 6 mps 757 mmHg 28%
10:00 +32°C° 0.3 mm 6 mps 757 mmHg 28%
11:00 +33°C° 0.3 mm 6 mps 757 mmHg 27%
12:00 +34°C° 0.3 mm 6 mps 756 mmHg 27%
13:00 +34°C° 0.1 mm 6 mps 756 mmHg 25%
14:00 +34°C° 0.1 mm 6 mps 756 mmHg 23%
15:00 +34°C° 0.1 mm 6 mps 755 mmHg 22%
16:00 +34°C° 0 mm 5 mps 755 mmHg 22%
17:00 +34°C° 0 mm 5 mps 755 mmHg 22%
18:00 +33°C° 0 mm 5 mps 755 mmHg 22%
19:00 +30°C° 0 mm 4 mps 755 mmHg 24%
20:00 +29°C° 0 mm 4 mps 755 mmHg 26%
21:00 +27°C° 0 mm 3 mps 755 mmHg 28%
22:00 +26°C° 0 mm 4 mps 755 mmHg 30%
23:00 +26°C° 0 mm 4 mps 755 mmHg 31%

17 July, Friday

Time Temperature Precipitation Wind Pressure Humidity
00:00 +25°C° 0 mm 4 mps 755 mmHg 32%
01:00 +25°C° 0 mm 4 mps 755 mmHg 33%
02:00 +23°C° 0 mm 4 mps 755 mmHg 33%
03:00 +23°C° 0 mm 4 mps 755 mmHg 34%
04:00 +25°C° 0 mm 4 mps 755 mmHg 32%
05:00 +26°C° 0 mm 4 mps 755 mmHg 31%
06:00 +27°C° 0 mm 4 mps 755 mmHg 29%
07:00 +28°C° 0 mm 4 mps 755 mmHg 26%
08:00 +30°C° 0 mm 4 mps 755 mmHg 23%
09:00 +33°C° 0 mm 4 mps 755 mmHg 20%
10:00 +34°C° 0 mm 4 mps 755 mmHg 19%
11:00 +35°C° 0 mm 4 mps 755 mmHg 18%
12:00 +36°C° 0 mm 4 mps 755 mmHg 16%
13:00 +36°C° 0 mm 4 mps 755 mmHg 16%
14:00 +36°C° 0 mm 4 mps 755 mmHg 15%
15:00 +37°C° 0 mm 4 mps 754 mmHg 15%
16:00 +36°C° 0 mm 4 mps 754 mmHg 16%
17:00 +35°C° 0 mm 4 mps 754 mmHg 17%
18:00 +35°C° 0 mm 4 mps 754 mmHg 18%
19:00 +32°C° 0 mm 4 mps 754 mmHg 22%
20:00 +29°C° 0 mm 3 mps 754 mmHg 26%
21:00 +27°C° 0 mm 3 mps 755 mmHg 29%
22:00 +27°C° 0 mm 3 mps 755 mmHg 29%
23:00 +26°C° 0 mm 4 mps 755 mmHg 29%

18 July, Saturday

Time Temperature Precipitation Wind Pressure Humidity
00:00 +26°C° 0 mm 4 mps 755 mmHg 29%
01:00 +26°C° 0 mm 4 mps 755 mmHg 31%
02:00 +25°C° 0 mm 4 mps 755 mmHg 33%
03:00 +25°C° 0 mm 4 mps 756 mmHg 34%
04:00 +26°C° 0 mm 3 mps 756 mmHg 35%
05:00 +26°C° 0 mm 3 mps 756 mmHg 35%
06:00 +26°C° 0 mm 3 mps 757 mmHg 36%
07:00 +27°C° 0 mm 3 mps 757 mmHg 33%
08:00 +29°C° 0 mm 3 mps 757 mmHg 31%
09:00 +30°C° 0 mm 3 mps 757 mmHg 29%
10:00 +31°C° 0 mm 3 mps 757 mmHg 26%
11:00 +33°C° 0 mm 3 mps 757 mmHg 24%
12:00 +34°C° 0 mm 3 mps 757 mmHg 21%
13:00 +35°C° 0 mm 4 mps 757 mmHg 20%
14:00 +35°C° 0 mm 5 mps 756 mmHg 19%
15:00 +36°C° 0 mm 5 mps 756 mmHg 18%
16:00 +35°C° 0 mm 5 mps 756 mmHg 19%
17:00 +35°C° 0 mm 4 mps 756 mmHg 20%
18:00 +34°C° 0 mm 4 mps 756 mmHg 22%
19:00 +30°C° 0 mm 3 mps 756 mmHg 30%
20:00 +28°C° 0 mm 3 mps 756 mmHg 38%
21:00 +26°C° 0 mm 2 mps 756 mmHg 46%
22:00 +25°C° 0 mm 2 mps 756 mmHg 46%
23:00 +24°C° 0 mm 1 mps 756 mmHg 47%
Show more